When you browse on this site, cookies collect data to enhance your experience and personalize the content and advertising you see.
Visit our Privacy Policy to learn more. By continuing to use the site, you agree to this use of cookies and data.
  • In Austria
  • List of Countries
  • For 7 days
  • Water Temperature
  • Satellite Maps
  • Weather Map
  • News
  • Weather Widgets
  • user-avatar
    Login

    Hourly Weather Malye Steblevichi

    Today, 26 May, Sunday

    Time Temperature Precipitation Wind Pressure Humidity
    00:00 +14°C° 0 mm 2 mps 745 mmHg 87%
    01:00 +13°C° 0 mm 2 mps 745 mmHg 90%
    02:00 +13°C° 0 mm 2 mps 745 mmHg 93%
    03:00 +12°C° 0 mm 2 mps 746 mmHg 93%
    04:00 +12°C° 0 mm 2 mps 746 mmHg 93%
    05:00 +10°C° 0 mm 2 mps 746 mmHg 93%
    06:00 +12°C° 0 mm 3 mps 746 mmHg 85%
    07:00 +13°C° 0 mm 3 mps 746 mmHg 78%
    08:00 +14°C° 0 mm 3 mps 747 mmHg 70%
    09:00 +16°C° 0 mm 3 mps 747 mmHg 67%
    10:00 +17°C° 0 mm 4 mps 747 mmHg 63%
    11:00 +18°C° 0 mm 4 mps 747 mmHg 60%
    12:00 +17°C° 0 mm 5 mps 747 mmHg 60%
    13:00 +17°C° 0 mm 5 mps 747 mmHg 61%
    14:00 +19°C° 0 mm 5 mps 747 mmHg 62%
    15:00 +19°C° 0 mm 5 mps 747 mmHg 62%
    16:00 +19°C° 0 mm 4 mps 747 mmHg 63%
    17:00 +19°C° 0 mm 4 mps 746 mmHg 64%
    18:00 +17°C° 0 mm 4 mps 747 mmHg 70%
    19:00 +16°C° 0 mm 3 mps 747 mmHg 76%
    20:00 +14°C° 0 mm 2 mps 747 mmHg 82%
    21:00 +13°C° 0 mm 2 mps 747 mmHg 85%
    22:00 +12°C° 0 mm 2 mps 747 mmHg 88%
    23:00 +11°C° 0 mm 1 mps 747 mmHg 91%

    Tomorrow, 27 May, Monday

    Time Temperature Precipitation Wind Pressure Humidity
    00:00 +11°C° 0 mm 1 mps 747 mmHg 91%
    01:00 +10°C° 0 mm 2 mps 748 mmHg 92%
    02:00 +10°C° 0 mm 2 mps 748 mmHg 92%
    03:00 +10°C° 0 mm 2 mps 748 mmHg 93%
    04:00 +10°C° 0 mm 2 mps 747 mmHg 93%
    05:00 +12°C° 0 mm 2 mps 747 mmHg 94%
    06:00 +13°C° 0 mm 3 mps 748 mmHg 87%
    07:00 +16°C° 0 mm 3 mps 748 mmHg 80%
    08:00 +19°C° 0 mm 4 mps 748 mmHg 74%
    09:00 +20°C° 0 mm 4 mps 748 mmHg 68%
    10:00 +22°C° 0 mm 4 mps 748 mmHg 62%
    11:00 +23°C° 0 mm 5 mps 748 mmHg 55%
    12:00 +25°C° 0.1 mm 5 mps 747 mmHg 55%
    13:00 +26°C° 0.1 mm 5 mps 747 mmHg 54%
    14:00 +26°C° 0.1 mm 5 mps 747 mmHg 53%
    15:00 +26°C° 0.1 mm 5 mps 747 mmHg 56%
    16:00 +26°C° 0.1 mm 5 mps 746 mmHg 59%
    17:00 +25°C° 0.1 mm 5 mps 746 mmHg 62%
    18:00 +23°C° 0 mm 4 mps 746 mmHg 69%
    19:00 +21°C° 0 mm 3 mps 746 mmHg 76%
    20:00 +20°C° 0 mm 3 mps 746 mmHg 83%
    21:00 +19°C° 0 mm 3 mps 746 mmHg 85%
    22:00 +18°C° 0 mm 3 mps 747 mmHg 87%
    23:00 +17°C° 0 mm 3 mps 747 mmHg 90%

    Day after tomorrow, 28 May, Tuesday

    Time Temperature Precipitation Wind Pressure Humidity
    00:00 +17°C° 0.1 mm 2 mps 747 mmHg 91%
    01:00 +17°C° 0.1 mm 2 mps 747 mmHg 92%
    02:00 +16°C° 0.1 mm 2 mps 747 mmHg 93%
    03:00 +17°C° 0 mm 2 mps 746 mmHg 94%
    04:00 +17°C° 0 mm 2 mps 746 mmHg 94%
    05:00 +17°C° 0 mm 2 mps 746 mmHg 94%
    06:00 +18°C° 0 mm 3 mps 746 mmHg 90%
    07:00 +19°C° 0 mm 3 mps 746 mmHg 86%
    08:00 +21°C° 0 mm 4 mps 746 mmHg 82%
    09:00 +22°C° 0 mm 4 mps 745 mmHg 76%
    10:00 +25°C° 0 mm 5 mps 745 mmHg 70%
    11:00 +26°C° 0 mm 5 mps 745 mmHg 65%
    12:00 +27°C° 0.8 mm 5 mps 745 mmHg 65%
    13:00 +27°C° 0.8 mm 6 mps 745 mmHg 65%
    14:00 +27°C° 0.8 mm 6 mps 744 mmHg 65%
    15:00 +27°C° 0.3 mm 6 mps 744 mmHg 64%
    16:00 +27°C° 0.3 mm 6 mps 744 mmHg 63%
    17:00 +27°C° 0.3 mm 6 mps 744 mmHg 62%
    18:00 +25°C° 0 mm 5 mps 744 mmHg 66%
    19:00 +22°C° 0 mm 4 mps 744 mmHg 70%
    20:00 +20°C° 0 mm 3 mps 744 mmHg 75%
    21:00 +20°C° 0 mm 4 mps 744 mmHg 73%
    22:00 +20°C° 0 mm 5 mps 744 mmHg 72%
    23:00 +21°C° 0 mm 5 mps 744 mmHg 71%

    29 May, Wednesday

    Time Temperature Precipitation Wind Pressure Humidity
    00:00 +20°C° 0 mm 5 mps 744 mmHg 71%
    01:00 +19°C° 0 mm 5 mps 744 mmHg 72%
    02:00 +17°C° 0 mm 5 mps 744 mmHg 73%
    03:00 +17°C° 0 mm 5 mps 744 mmHg 75%
    04:00 +16°C° 0 mm 5 mps 744 mmHg 77%
    05:00 +16°C° 0 mm 5 mps 744 mmHg 79%
    06:00 +17°C° 0 mm 5 mps 744 mmHg 78%
    07:00 +19°C° 0 mm 5 mps 744 mmHg 76%
    08:00 +20°C° 0 mm 5 mps 744 mmHg 74%
    09:00 +21°C° 0.3 mm 5 mps 744 mmHg 73%
    10:00 +22°C° 0.3 mm 5 mps 744 mmHg 71%
    11:00 +23°C° 0.3 mm 5 mps 745 mmHg 69%
    12:00 +25°C° 0.1 mm 5 mps 745 mmHg 67%
    13:00 +26°C° 0.1 mm 5 mps 745 mmHg 64%
    14:00 +27°C° 0.1 mm 4 mps 745 mmHg 62%
    15:00 +26°C° 3.4 mm 4 mps 745 mmHg 69%
    16:00 +24°C° 3.4 mm 3 mps 745 mmHg 76%
    17:00 +22°C° 3.4 mm 3 mps 745 mmHg 83%
    18:00 +21°C° 0.4 mm 2 mps 745 mmHg 85%
    19:00 +20°C° 0.4 mm 2 mps 745 mmHg 87%
    20:00 +20°C° 0.4 mm 1 mps 745 mmHg 88%
    21:00 +20°C° 0 mm 1 mps 745 mmHg 89%
    22:00 +19°C° 0 mm 1 mps 745 mmHg 90%
    23:00 +18°C° 0 mm 1 mps 745 mmHg 91%

    30 May, Thursday

    Time Temperature Precipitation Wind Pressure Humidity
    00:00 +18°C° 0 mm 1 mps 745 mmHg 92%
    01:00 +18°C° 0 mm 1 mps 745 mmHg 92%
    02:00 +18°C° 0 mm 1 mps 745 mmHg 93%
    03:00 +18°C° 0 mm 1 mps 745 mmHg 93%
    04:00 +18°C° 0 mm 1 mps 745 mmHg 94%
    05:00 +18°C° 0 mm 1 mps 745 mmHg 94%
    06:00 +19°C° 0 mm 1 mps 746 mmHg 91%
    07:00 +20°C° 0 mm 1 mps 746 mmHg 87%
    08:00 +22°C° 0 mm 1 mps 746 mmHg 84%
    09:00 +21°C° 0.7 mm 2 mps 746 mmHg 82%
    10:00 +23°C° 0.7 mm 2 mps 746 mmHg 80%
    11:00 +24°C° 0.7 mm 3 mps 746 mmHg 78%
    12:00 +22°C° 0.6 mm 4 mps 747 mmHg 81%
    13:00 +21°C° 0.6 mm 4 mps 747 mmHg 83%
    14:00 +20°C° 0.6 mm 5 mps 747 mmHg 86%
    15:00 +20°C° 0 mm 5 mps 748 mmHg 82%
    16:00 +19°C° 0 mm 5 mps 748 mmHg 78%
    17:00 +19°C° 0 mm 5 mps 748 mmHg 75%
    18:00 +17°C° 0 mm 5 mps 749 mmHg 77%
    19:00 +15°C° 0 mm 5 mps 749 mmHg 80%
    20:00 +13°C° 0 mm 5 mps 750 mmHg 82%
    21:00 +12°C° 0 mm 4 mps 750 mmHg 82%
    22:00 +11°C° 0 mm 4 mps 751 mmHg 81%
    23:00 +11°C° 0 mm 4 mps 751 mmHg 80%

    31 May, Friday

    Time Temperature Precipitation Wind Pressure Humidity
    00:00 +10°C° 0 mm 4 mps 751 mmHg 80%
    01:00 +10°C° 0 mm 4 mps 752 mmHg 81%
    02:00 +9°C° 0 mm 3 mps 752 mmHg 81%
    03:00 +9°C° 0 mm 3 mps 752 mmHg 81%
    04:00 +8°C° 0 mm 3 mps 753 mmHg 81%
    05:00 +8°C° 0 mm 3 mps 753 mmHg 81%
    06:00 +9°C° 0 mm 3 mps 753 mmHg 76%
    07:00 +11°C° 0 mm 4 mps 754 mmHg 70%
    08:00 +12°C° 0 mm 4 mps 754 mmHg 65%
    09:00 +14°C° 0 mm 4 mps 754 mmHg 60%
    10:00 +15°C° 0 mm 5 mps 754 mmHg 56%
    11:00 +17°C° 0 mm 5 mps 754 mmHg 52%
    12:00 +17°C° 0 mm 5 mps 755 mmHg 51%
    13:00 +19°C° 0 mm 5 mps 755 mmHg 51%
    14:00 +20°C° 0 mm 4 mps 755 mmHg 51%
    15:00 +19°C° 0 mm 4 mps 755 mmHg 52%
    16:00 +19°C° 0 mm 4 mps 755 mmHg 54%
    17:00 +19°C° 0 mm 4 mps 755 mmHg 55%
    18:00 +17°C° 0 mm 3 mps 755 mmHg 61%
    19:00 +16°C° 0 mm 3 mps 756 mmHg 66%
    20:00 +14°C° 0 mm 2 mps 756 mmHg 72%
    21:00 +13°C° 0 mm 2 mps 756 mmHg 72%
    22:00 +12°C° 0 mm 2 mps 756 mmHg 72%
    23:00 +10°C° 0 mm 2 mps 757 mmHg 72%
    Show more